TimeEST,TemperatureF,Dew PointF,Humidity,Sea Level PressureIn,VisibilityMPH,Wind Direction,Wind SpeedMPH,Gust SpeedMPH,PrecipitationIn,Events,Conditions,WindDirDegrees,DateUTC
12:53 AM,26.1,14.0,60,30.24,10.0,WSW,3.5,-,N/A,,Clear,250,2013-02-19 05:53:00
1:53 AM,19.0,10.0,68,30.21,10.0,Calm,Calm,-,N/A,,Clear,0,2013-02-19 06:53:00
2:53 AM,17.1,9.0,71,30.19,10.0,Calm,Calm,-,N/A,,Clear,0,2013-02-19 07:53:00
3:53 AM,17.1,9.0,71,30.17,10.0,Calm,Calm,-,N/A,,Clear,0,2013-02-19 08:53:00
4:53 AM,16.0,9.0,74,30.17,10.0,Calm,Calm,-,N/A,,Clear,0,2013-02-19 09:53:00
5:53 AM,16.0,10.0,77,30.15,10.0,Calm,Calm,-,N/A,,Clear,0,2013-02-19 10:53:00
6:53 AM,18.0,12.0,78,30.12,10.0,SE,3.5,-,N/A,,Clear,140,2013-02-19 11:53:00
7:53 AM,35.1,28.0,76,30.12,10.0,SSW,5.8,-,N/A,,Clear,200,2013-02-19 12:53:00
8:53 AM,44.1,33.1,65,30.11,10.0,SSW,10.4,20.7,N/A,,Clear,210,2013-02-19 13:53:00
9:53 AM,45.0,33.1,63,30.09,10.0,SSW,12.7,23.0,N/A,,Clear,200,2013-02-19 14:53:00
10:53 AM,45.0,34.0,65,30.06,10.0,South,11.5,25.3,N/A,,Clear,190,2013-02-19 15:53:00
11:53 AM,46.0,34.0,63,30.03,10.0,South,13.8,20.7,N/A,,Mostly Cloudy,180,2013-02-19 16:53:00
1:53 PM,46.0,36.0,68,29.95,10.0,South,5.8,-,N/A,,Scattered Clouds,190,2013-02-19 18:53:00
2:53 PM,45.0,37.9,76,29.91,8.0,SSW,11.5,18.4,0.01,Rain,Light Rain,210,2013-02-19 19:53:00
3:53 PM,43.0,39.9,89,29.86,5.0,SSW,6.9,-,0.03,Rain,Light Rain,200,2013-02-19 20:53:00
4:08 PM,42.8,39.2,87,29.84,6.0,South,6.9,-,0.01,Rain,Light Rain,190,2013-02-19 21:08:00
4:53 PM,44.1,41.0,89,29.80,5.0,South,6.9,-,0.03,Rain,Light Rain,180,2013-02-19 21:53:00
5:06 PM,44.6,42.8,93,29.79,2.5,South,6.9,-,0.03,Rain,Rain,170,2013-02-19 22:06:00
5:13 PM,44.6,42.8,93,29.79,2.5,South,6.9,-,0.05,Rain,Heavy Rain,180,2013-02-19 22:13:00
5:29 PM,46.4,42.8,87,29.78,2.5,South,8.1,-,0.07,Rain,Light Rain,190,2013-02-19 22:29:00
5:37 PM,46.4,42.8,87,29.78,2.5,South,8.1,-,0.07,Rain,Light Rain,190,2013-02-19 22:37:00
5:53 PM,46.0,44.1,93,29.76,2.5,South,6.9,-,0.09,Rain,Light Rain,190,2013-02-19 22:53:00
6:00 PM,46.4,44.6,93,29.76,8.0,South,9.2,-,0.00,Rain,Light Rain,190,2013-02-19 23:00:00
7:24 PM,46.4,42.8,87,29.71,5.0,SSW,12.7,21.9,0.03,Rain,Light Rain,210,2013-02-20 00:24:00
7:53 PM,46.0,43.0,89,29.69,5.0,WSW,15.0,20.7,0.09,Rain,Light Rain,250,2013-02-20 00:53:00
8:53 PM,44.1,42.1,93,29.68,10.0,WSW,10.4,-,0.05,Rain,Light Rain,250,2013-02-20 01:53:00
9:21 PM,42.8,42.8,100,29.66,8.0,West,8.1,-,0.00,,Overcast,260,2013-02-20 02:21:00
9:35 PM,42.8,42.8,100,29.67,9.0,WSW,9.2,-,0.00,,Overcast,250,2013-02-20 02:35:00
9:53 PM,43.0,41.0,93,29.68,10.0,WSW,10.4,-,0.00,Rain,Light Rain,250,2013-02-20 02:53:00
10:06 PM,44.6,41.0,87,29.67,10.0,West,10.4,-,0.00,,Overcast,260,2013-02-20 03:06:00
10:39 PM,42.8,41.0,93,29.66,8.0,West,5.8,-,0.00,,Overcast,270,2013-02-20 03:39:00
10:49 PM,42.8,41.0,93,29.66,8.0,West,5.8,-,0.00,,Overcast,280,2013-02-20 03:49:00
10:53 PM,42.1,41.0,96,29.67,7.0,West,6.9,-,0.00,,Overcast,280,2013-02-20 03:53:00
11:01 PM,42.8,41.0,93,29.67,7.0,West,6.9,-,N/A,,Overcast,270,2013-02-20 04:01:00
11:46 PM,42.8,37.4,81,29.67,10.0,WNW,13.8,-,N/A,,Mostly Cloudy,290,2013-02-20 04:46:00
11:53 PM,41.0,36.0,82,29.68,10.0,West,10.4,-,N/A,,Scattered Clouds,280,2013-02-20 04:53:00